AAR542 EDDF-RKSI

Flight info

Callsign AAR542
Flight time N/A
Altitude 31000
Route CINDY5L CINDY Z74 HAREM DCT ASLEP DCT TAKUT DCT DINKU L603 BESNI/N0481F370 L605 MIQ DCT ALUTU DCT BIBAG Q104 AKIMA DCT STEIN DCT TEGRI DCT LUGEB DCT UDROS UM859 KARDE UN644 ROLIN DCT TAGAR DCT BT/N0492F390 DCT BARAD M747 SUBUT T923 ERLEV L850 BAKUV N701 LARGI B701 KRS B738 NEBIT B476 TIMGA A480 OTBOR/K0896F390 N147 GENDI Z621 ARBOL M610 RULAD/K0898S1190 A343 NLT/K0900S1250 A343 POSOT B215 FKG W188 LIKMI W270 DKO W69 HUR B339 LADIX W34 VAPGU W100 ORAVA W201 UNSEK A326 DONVO G597 AGAVO/N0505F290 Y644 REBIT REBIT2H
Aircraft A359/H-SDE2E3GHIJ3J4J5LM1ORWXY/LB1D1

Departure

Time N/A
Airport Frankfurt Main Airport (EDDF)

Arrival

Time 2026-05-05 04:50
Airport Incheon International Airport (RKSI)
Time Latitude Longitude Altitude Speed Heading
2026-05-05 02:57 42.16909 100.42835 36640 ft 593 kts 94°
2026-05-05 02:57 42.16524 100.48412 36639 ft 593 kts 94°
2026-05-05 02:58 42.15749 100.59510 36635 ft 593 kts 94°
2026-05-05 02:58 42.14965 100.70570 36633 ft 593 kts 94°
2026-05-05 02:59 42.14174 100.81587 36634 ft 593 kts 94°
2026-05-05 02:59 42.13367 100.92679 36629 ft 593 kts 94°
2026-05-05 03:00 42.12002 101.05642 36630 ft 594 kts 107°
2026-05-05 03:00 42.01076 101.47820 36626 ft 593 kts 110°
2026-05-05 03:01 41.90029 101.89172 36631 ft 591 kts 110°
2026-05-05 03:01 41.78711 102.30812 36628 ft 590 kts 110°
2026-05-05 03:02 41.67387 102.71791 36629 ft 589 kts 110°
2026-05-05 03:02 41.55900 103.12727 36623 ft 588 kts 110°
2026-05-05 03:03 41.44256 103.53481 36618 ft 587 kts 111°
2026-05-05 03:03 41.32474 103.94104 36608 ft 586 kts 111°
2026-05-05 03:04 41.20624 104.34324 36614 ft 584 kts 111°
2026-05-05 03:04 41.08644 104.74302 36621 ft 581 kts 112°
2026-05-05 03:05 40.95332 105.13213 36630 ft 579 kts 114°
2026-05-05 03:05 40.82043 105.51940 36645 ft 576 kts 114°
2026-05-05 03:06 40.68748 105.90135 36652 ft 574 kts 114°
2026-05-05 03:06 40.55335 106.28158 36663 ft 571 kts 115°
2026-05-05 03:07 40.41832 106.65932 36658 ft 569 kts 115°
2026-05-05 03:07 40.31855 107.04330 36665 ft 554 kts 79°
2026-05-05 03:08 40.36760 107.44110 36642 ft 551 kts 77°
2026-05-05 03:08 40.41496 107.83729 36646 ft 550 kts 77°
2026-05-05 03:09 40.46072 108.23175 36655 ft 548 kts 77°
2026-05-05 03:09 40.50526 108.62871 36662 ft 546 kts 78°
2026-05-05 03:10 40.54802 109.02201 36679 ft 546 kts 78°
2026-05-05 03:10 40.58968 109.41805 36700 ft 544 kts 78°
2026-05-05 03:11 40.62962 109.81091 36720 ft 543 kts 78°
2026-05-05 03:11 40.64591 110.21034 36750 ft 547 kts 86°
2026-05-05 03:12 40.64285 110.60666 36776 ft 544 kts 87°
2026-05-05 03:12 40.63848 111.00791 36785 ft 543 kts 86°
2026-05-05 03:13 40.63297 111.40320 36790 ft 542 kts 86°
2026-05-05 03:13 40.62602 111.79857 36803 ft 539 kts 86°
2026-05-05 03:14 40.61786 112.19357 36814 ft 538 kts 87°
2026-05-05 03:14 40.60681 112.58541 36794 ft 542 kts 90°
2026-05-05 03:15 40.57838 112.98423 36769 ft 543 kts 91°
2026-05-05 03:15 40.55177 113.37760 36764 ft 542 kts 92°
2026-05-05 03:16 40.52350 113.77099 36754 ft 541 kts 92°
2026-05-05 03:16 40.50804 113.97897 36738 ft 540 kts 93°
2026-05-05 03:17 40.50207 114.07679 36732 ft 539 kts 90°
2026-05-05 03:17 40.49856 114.17531 36730 ft 539 kts 90°
2026-05-05 03:18 40.49495 114.27376 36725 ft 540 kts 90°
2026-05-05 03:18 40.49080 114.37226 36724 ft 540 kts 91°
2026-05-05 03:19 40.48413 114.51950 36726 ft 540 kts 91°
2026-05-05 03:19 40.47953 114.61855 36727 ft 540 kts 91°
2026-05-05 03:20 40.47490 114.71703 36727 ft 540 kts 91°
2026-05-05 03:20 40.47019 114.81518 36735 ft 540 kts 91°
2026-05-05 03:21 40.46539 114.91351 36739 ft 538 kts 91°
2026-05-05 03:21 40.46054 115.01129 36729 ft 538 kts 92°
2026-05-05 03:22 40.45562 115.10921 36734 ft 537 kts 92°
2026-05-05 03:22 40.45059 115.20706 36738 ft 537 kts 92°
2026-05-05 03:23 40.44550 115.30451 36728 ft 536 kts 92°
2026-05-05 03:23 40.44034 115.40196 36738 ft 535 kts 92°
2026-05-05 03:24 40.43510 115.49930 36739 ft 535 kts 92°
2026-05-05 03:24 40.42917 115.59684 36747 ft 536 kts 94°
2026-05-05 03:25 40.42102 115.69405 36756 ft 536 kts 95°
2026-05-05 03:25 40.41255 115.79123 36761 ft 536 kts 95°
2026-05-05 03:26 40.40438 115.88799 36769 ft 535 kts 95°
2026-05-05 03:26 40.39630 115.98523 36776 ft 535 kts 95°
2026-05-05 03:27 40.38819 116.08224 36775 ft 534 kts 95°
2026-05-05 03:27 40.38000 116.17888 36783 ft 534 kts 95°
2026-05-05 03:28 40.37171 116.27568 36779 ft 533 kts 95°
2026-05-05 03:28 40.36337 116.37218 36785 ft 533 kts 95°
2026-05-05 03:29 40.35637 116.45245 36792 ft 533 kts 95°
2026-05-05 03:29 40.34787 116.54895 36789 ft 533 kts 95°
2026-05-05 03:30 40.33396 116.64485 36792 ft 535 kts 108°
2026-05-05 03:30 40.31920 116.68928 36792 ft 535 kts 119°
2026-05-05 03:30 40.29866 116.72954 36790 ft 534 kts 130°
2026-05-05 03:31 40.27282 116.76418 36792 ft 531 kts 141°
2026-05-05 03:31 40.24272 116.79182 36791 ft 528 kts 153°
2026-05-05 03:31 40.17436 116.82326 36795 ft 519 kts 174°
2026-05-05 03:32 40.13849 116.82649 36798 ft 513 kts 185°
2026-05-05 03:32 40.10295 116.82149 36797 ft 508 kts 195°
2026-05-05 03:32 40.03248 116.81212 36796 ft 516 kts 181°
2026-05-05 03:33 39.96079 116.82161 36788 ft 519 kts 175°
2026-05-05 03:33 39.88962 116.83558 36789 ft 520 kts 174°
2026-05-05 03:34 39.81804 116.85041 36790 ft 520 kts 174°
2026-05-05 03:34 39.74639 116.86516 36781 ft 521 kts 174°
2026-05-05 03:35 39.67513 116.88007 36787 ft 521 kts 173°
2026-05-05 03:35 39.60323 116.89503 36780 ft 521 kts 173°
2026-05-05 03:36 39.53183 116.90978 36781 ft 521 kts 173°
2026-05-05 03:36 39.46029 116.92451 36782 ft 521 kts 173°
2026-05-05 03:37 39.38868 116.93921 36782 ft 521 kts 173°
2026-05-05 03:37 39.31707 116.95389 36779 ft 521 kts 173°
2026-05-05 03:38 39.24539 116.96903 36782 ft 522 kts 170°
2026-05-05 03:38 39.17727 117.00171 36790 ft 527 kts 151°
2026-05-05 03:39 39.14731 117.02885 36791 ft 529 kts 140°
2026-05-05 03:39 39.12158 117.06274 36794 ft 529 kts 129°
2026-05-05 03:39 39.10134 117.10163 36794 ft 529 kts 117°
2026-05-05 03:39 39.08674 117.14517 36798 ft 527 kts 107°
2026-05-05 03:40 39.07856 117.19110 36802 ft 525 kts 96°
2026-05-05 03:40 39.07689 117.23782 36799 ft 521 kts 85°
2026-05-05 03:40 39.08073 117.33061 36806 ft 523 kts 91°
2026-05-05 03:41 39.07804 117.42398 36799 ft 522 kts 86°
2026-05-05 03:41 39.07722 117.51757 36799 ft 522 kts 89°
2026-05-05 03:42 39.07613 117.61057 36796 ft 522 kts 89°
2026-05-05 03:42 39.07497 117.70450 36805 ft 522 kts 89°
2026-05-05 03:43 39.07376 117.79747 36801 ft 522 kts 89°
2026-05-05 03:43 39.07247 117.89089 36814 ft 521 kts 89°
2026-05-05 03:44 39.07111 117.98397 36818 ft 521 kts 89°
2026-05-05 03:44 39.06346 118.07688 36813 ft 523 kts 98°
2026-05-05 03:45 39.04961 118.16890 36827 ft 524 kts 100°
2026-05-05 03:45 39.03475 118.26080 36824 ft 524 kts 100°
2026-05-05 03:46 39.01990 118.35237 36833 ft 524 kts 100°
2026-05-05 03:46 39.00509 118.44416 36833 ft 524 kts 100°
2026-05-05 03:47 38.99031 118.53599 36832 ft 524 kts 100°
2026-05-05 03:47 38.97548 118.62748 36837 ft 524 kts 100°
2026-05-05 03:48 38.96055 118.71890 36838 ft 524 kts 100°
2026-05-05 03:48 38.94550 118.81058 36843 ft 524 kts 100°
2026-05-05 03:49 38.93044 118.90193 36846 ft 524 kts 100°
2026-05-05 03:49 38.91520 118.99391 36845 ft 524 kts 100°
2026-05-05 03:50 38.90002 119.08529 36848 ft 523 kts 100°
2026-05-05 03:50 38.88476 119.17630 36848 ft 523 kts 100°
2026-05-05 03:51 38.86937 119.26750 36851 ft 523 kts 101°
2026-05-05 03:51 38.85391 119.35871 36851 ft 522 kts 101°
2026-05-05 03:52 38.83844 119.44960 36857 ft 522 kts 101°
2026-05-05 03:52 38.82287 119.54067 36863 ft 522 kts 101°
2026-05-05 03:53 38.80723 119.63164 36862 ft 522 kts 101°
2026-05-05 03:53 38.79154 119.72249 36864 ft 522 kts 101°
2026-05-05 03:54 38.77586 119.81284 36870 ft 521 kts 101°
2026-05-05 03:54 38.76043 119.90376 36871 ft 521 kts 100°
2026-05-05 03:55 38.74562 119.99437 36876 ft 520 kts 100°
2026-05-05 03:55 38.73000 120.08502 36876 ft 521 kts 104°
2026-05-05 03:56 38.71708 120.12814 36878 ft 522 kts 116°
2026-05-05 03:56 38.69760 120.16709 36883 ft 523 kts 129°
2026-05-05 03:56 38.67146 120.19997 36885 ft 523 kts 143°
2026-05-05 03:56 38.64082 120.22373 36886 ft 521 kts 156°
2026-05-05 03:57 38.57387 120.25894 36889 ft 522 kts 149°
2026-05-05 03:57 38.54511 120.28745 36888 ft 522 kts 134°
2026-05-05 03:57 38.52289 120.32369 36888 ft 520 kts 120°
2026-05-05 03:58 38.50839 120.36567 36891 ft 517 kts 105°
2026-05-05 03:58 38.50255 120.41030 36892 ft 514 kts 90°
2026-05-05 03:58 38.50564 120.45572 36892 ft 509 kts 75°
2026-05-05 03:58 38.51734 120.49775 36897 ft 505 kts 60°
2026-05-05 03:59 38.53711 120.53475 36896 ft 500 kts 45°
2026-05-05 03:59 38.56232 120.56457 36890 ft 497 kts 39°
2026-05-05 03:59 38.60947 120.62950 36899 ft 503 kts 53°
2026-05-05 04:00 38.62674 120.66855 36898 ft 506 kts 64°
2026-05-05 04:00 38.63805 120.71138 36902 ft 510 kts 75°
2026-05-05 04:00 38.64290 120.75636 36898 ft 512 kts 86°
2026-05-05 04:00 38.64130 120.80207 36907 ft 515 kts 96°
2026-05-05 04:01 38.63359 120.84620 36905 ft 516 kts 107°
2026-05-05 04:01 38.61985 120.88881 36908 ft 518 kts 117°
2026-05-05 04:01 38.57918 120.96440 36906 ft 519 kts 128°
2026-05-05 04:02 38.53399 121.03642 36912 ft 519 kts 129°
2026-05-05 04:02 38.48911 121.10884 36911 ft 519 kts 124°
2026-05-05 04:03 38.45746 121.19132 36915 ft 517 kts 105°
2026-05-05 04:03 38.44077 121.27980 36914 ft 517 kts 100°
2026-05-05 04:04 38.42669 121.36995 36921 ft 518 kts 99°
2026-05-05 04:04 38.41266 121.46018 36923 ft 518 kts 100°
2026-05-05 04:05 38.39814 121.54985 36926 ft 518 kts 101°
2026-05-05 04:05 38.38298 121.64008 36930 ft 519 kts 101°
2026-05-05 04:06 38.36782 121.72985 36934 ft 519 kts 101°
2026-05-05 04:06 38.35271 121.81928 36940 ft 519 kts 101°
2026-05-05 04:07 38.33743 121.90946 36941 ft 519 kts 101°
2026-05-05 04:07 38.32220 121.99905 36950 ft 519 kts 101°
2026-05-05 04:08 38.30683 122.08889 36954 ft 519 kts 101°
2026-05-05 04:08 38.29144 122.17844 36959 ft 519 kts 102°
2026-05-05 04:09 38.27594 122.26840 36965 ft 520 kts 101°
2026-05-05 04:09 38.26252 122.35851 36969 ft 520 kts 99°
2026-05-05 04:10 38.24065 122.44627 36970 ft 521 kts 116°
2026-05-05 04:10 38.22206 122.48533 36981 ft 521 kts 127°
2026-05-05 04:10 38.19859 122.52071 36979 ft 521 kts 133°
2026-05-05 04:11 38.14836 122.58654 36986 ft 521 kts 136°
2026-05-05 04:11 38.09673 122.65158 36986 ft 522 kts 136°
2026-05-05 04:12 38.04578 122.71685 36994 ft 523 kts 135°
2026-05-05 04:12 37.99479 122.78297 36998 ft 523 kts 135°
2026-05-05 04:13 37.94421 122.84859 37005 ft 523 kts 136°
2026-05-05 04:13 37.89305 122.91476 37015 ft 524 kts 136°
2026-05-05 04:14 37.84205 122.98054 37018 ft 524 kts 136°
2026-05-05 04:14 37.79119 123.04597 37018 ft 524 kts 136°
2026-05-05 04:15 37.73991 123.11181 37028 ft 524 kts 136°
2026-05-05 04:15 37.68897 123.17708 37031 ft 524 kts 136°
2026-05-05 04:16 37.63765 123.24270 37029 ft 525 kts 136°
2026-05-05 04:16 37.58653 123.30795 37037 ft 525 kts 137°
2026-05-05 04:17 37.53962 123.37834 37044 ft 527 kts 129°
2026-05-05 04:17 37.49520 123.45236 37045 ft 528 kts 128°
2026-05-05 04:18 37.45136 123.52641 37049 ft 529 kts 129°
2026-05-05 04:18 37.40740 123.60026 37050 ft 530 kts 129°
2026-05-05 04:19 37.36295 123.67449 37049 ft 530 kts 129°
2026-05-05 04:19 37.31859 123.74830 37058 ft 531 kts 129°
2026-05-05 04:20 37.27423 123.82195 37059 ft 531 kts 129°
2026-05-05 04:20 37.22942 123.89620 37067 ft 532 kts 129°
2026-05-05 04:21 37.18946 123.97383 37068 ft 536 kts 116°
2026-05-05 04:21 37.17042 124.06438 37074 ft 540 kts 94°
2026-05-05 04:22 37.17067 124.15835 37071 ft 541 kts 87°
2026-05-05 04:22 37.17429 124.23720 37076 ft 542 kts 86°
2026-05-05 04:23 37.17826 124.33123 37085 ft 543 kts 88°
2026-05-05 04:23 37.18076 124.42577 37077 ft 543 kts 88°
2026-05-05 04:24 37.18284 124.52072 37087 ft 544 kts 88°
2026-05-05 04:25 37.18585 124.66349 37085 ft 545 kts 88°
2026-05-05 04:25 37.18787 124.75839 37091 ft 546 kts 88°
2026-05-05 04:26 37.18985 124.85372 37099 ft 547 kts 88°
2026-05-05 04:26 37.19172 124.94862 37098 ft 547 kts 89°
2026-05-05 04:27 37.19351 125.04432 37101 ft 548 kts 89°
2026-05-05 04:27 37.19523 125.13982 37103 ft 549 kts 89°
2026-05-05 04:28 37.19689 125.23587 37105 ft 550 kts 89°
2026-05-05 04:28 37.19847 125.33179 37108 ft 550 kts 89°
2026-05-05 04:29 37.19998 125.42789 37108 ft 551 kts 89°
2026-05-05 04:29 37.21270 125.52190 37111 ft 548 kts 65°
2026-05-05 04:29 37.23088 125.56330 37117 ft 543 kts 52°
2026-05-05 04:30 37.25264 125.60231 37114 ft 543 kts 52°
2026-05-05 04:30 37.29470 125.68110 37116 ft 545 kts 54°
2026-05-05 04:31 37.33084 125.76474 37119 ft 551 kts 71°
2026-05-05 04:31 37.33829 125.81187 37119 ft 552 kts 85°
2026-05-05 04:31 37.33685 125.85968 37122 ft 552 kts 100°
2026-05-05 04:31 37.32651 125.90642 37124 ft 548 kts 115°
2026-05-05 04:32 37.30833 125.94767 37123 ft 542 kts 129°
2026-05-05 04:32 37.28336 125.98251 37122 ft 536 kts 141°
2026-05-05 04:32 37.25563 126.01418 37115 ft 535 kts 143°
2026-05-05 04:32 37.23102 126.04917 37124 ft 546 kts 127°
2026-05-05 04:33 37.21322 126.09182 37123 ft 552 kts 112°
2026-05-05 04:33 37.20387 126.13820 37125 ft 556 kts 98°
2026-05-05 04:33 37.20328 126.18713 37129 ft 557 kts 83°
2026-05-05 04:33 37.21143 126.23389 37138 ft 555 kts 69°
2026-05-05 04:34 37.22797 126.27686 37051 ft 545 kts 55°
2026-05-05 04:34 37.25159 126.31301 37136 ft 531 kts 41°
2026-05-05 04:34 37.28063 126.34040 37146 ft 521 kts 26°
2026-05-05 04:34 37.31379 126.35784 37152 ft 513 kts 12°
2026-05-05 04:35 37.34869 126.36423 37159 ft 505 kts 357°
2026-05-05 04:35 37.38314 126.35938 37154 ft 497 kts 342°
2026-05-05 04:35 37.41523 126.34419 36796 ft 477 kts 329°
2026-05-05 04:35 37.44167 126.32130 35744 ft 456 kts 315°
2026-05-05 04:36 37.46211 126.29162 34108 ft 452 kts 302°
2026-05-05 04:36 37.47602 126.25582 31630 ft 459 kts 288°
2026-05-05 04:36 37.48291 126.21618 29705 ft 455 kts 280°
2026-05-05 04:36 37.48796 126.17785 27818 ft 440 kts 280°
2026-05-05 04:37 37.49302 126.13986 25694 ft 435 kts 281°
2026-05-05 04:37 37.49794 126.10276 23759 ft 430 kts 281°
2026-05-05 04:37 37.50276 126.06566 21604 ft 423 kts 281°
2026-05-05 04:37 37.50734 126.02978 19668 ft 415 kts 281°
2026-05-05 04:38 37.51181 125.99397 17714 ft 407 kts 281°
2026-05-05 04:38 37.51609 125.95939 15758 ft 399 kts 281°
2026-05-05 04:38 37.52033 125.92502 13956 ft 389 kts 281°
2026-05-05 04:38 37.52439 125.89196 12077 ft 378 kts 281°
2026-05-05 04:39 37.52831 125.85986 10324 ft 368 kts 281°
2026-05-05 04:39 37.53299 125.82860 8439 ft 356 kts 286°
2026-05-05 04:39 37.54159 125.79988 6765 ft 345 kts 298°
2026-05-05 04:39 37.55526 125.77565 5701 ft 343 kts 313°
2026-05-05 04:40 37.57377 125.75717 5161 ft 341 kts 329°
2026-05-05 04:40 37.59607 125.74620 4971 ft 343 kts 345°
2026-05-05 04:40 37.61999 125.74408 4954 ft 347 kts
2026-05-05 04:40 37.64336 125.75104 4956 ft 350 kts 19°
2026-05-05 04:41 37.66417 125.76667 4958 ft 355 kts 37°
2026-05-05 04:41 37.68069 125.79022 4960 ft 359 kts 56°
2026-05-05 04:41 37.68953 125.81980 4965 ft 363 kts 79°
2026-05-05 04:41 37.68864 125.85141 4950 ft 362 kts 102°
2026-05-05 04:42 37.68031 125.87935 4408 ft 325 kts 116°
2026-05-05 04:42 37.67035 125.90454 3316 ft 320 kts 117°
2026-05-05 04:42 37.66020 125.93085 2516 ft 347 kts 116°
2026-05-05 04:42 37.65218 125.95981 2082 ft 354 kts 103°
2026-05-05 04:43 37.64785 125.99064 1972 ft 354 kts 98°
2026-05-05 04:43 37.64453 126.02117 1967 ft 353 kts 97°
2026-05-05 04:43 37.64141 126.05208 1976 ft 353 kts 97°
2026-05-05 04:43 37.63841 126.08259 1967 ft 352 kts 97°
2026-05-05 04:44 37.63543 126.11307 1967 ft 351 kts 97°
2026-05-05 04:44 37.63253 126.14309 1963 ft 329 kts 97°
2026-05-05 04:44 37.62996 126.16979 1959 ft 284 kts 97°
2026-05-05 04:44 37.62768 126.19351 1967 ft 264 kts 97°
2026-05-05 04:45 37.62547 126.21628 1967 ft 261 kts 97°
2026-05-05 04:45 37.62325 126.23921 1967 ft 262 kts 97°
2026-05-05 04:45 37.62108 126.26185 1925 ft 259 kts 101°
2026-05-05 04:45 37.61597 126.28214 1960 ft 225 kts 126°
2026-05-05 04:46 37.60695 126.29660 1955 ft 202 kts 145°
2026-05-05 04:46 37.59552 126.30630 1990 ft 194 kts 155°
2026-05-05 04:46 37.58431 126.31548 1970 ft 195 kts 150°
2026-05-05 04:46 37.57329 126.32568 1966 ft 197 kts 149°
2026-05-05 04:47 37.56210 126.33579 1976 ft 197 kts 149°
2026-05-05 04:47 37.55098 126.34574 1949 ft 197 kts 150°
2026-05-05 04:47 37.53996 126.35561 1740 ft 186 kts 150°
2026-05-05 04:47 37.52997 126.36455 1482 ft 170 kts 150°
2026-05-05 04:48 37.52059 126.37294 1243 ft 158 kts 149°
2026-05-05 04:48 37.51198 126.38061 1030 ft 144 kts 149°
2026-05-05 04:48 37.50672 126.38530 873 ft 141 kts 149°
2026-05-05 04:48 37.50411 126.38758 820 ft 145 kts 148°
2026-05-05 04:49 37.49568 126.39522 676 ft 153 kts 147°
2026-05-05 04:49 37.48693 126.40337 468 ft 156 kts 148°
2026-05-05 04:49 37.47805 126.41116 230 ft 159 kts 150°
2026-05-05 04:49 37.46899 126.41905 63 ft 155 kts 148°
2026-05-05 04:50 37.46065 126.42656 45 ft 139 kts 149°
2026-05-05 04:50 37.45328 126.43307 41 ft 118 kts 149°
2026-05-05 04:50 37.44923 126.43649 37 ft 40 kts 143°
2026-05-05 04:50 37.44861 126.43794 39 ft 6 kts 58°
2026-05-05 04:51 37.44895 126.43851 39 ft 11 kts 53°
2026-05-05 04:51 37.44914 126.43970 39 ft 22 kts 72°
2026-05-05 04:51 37.45009 126.44164 38 ft 28 kts 56°
2026-05-05 04:51 37.44971 126.44347 38 ft 23 kts 131°
2026-05-05 04:52 37.44859 126.44516 38 ft 27 kts 123°
2026-05-05 04:52 37.44838 126.44567 38 ft 2 kts 93°
2026-05-05 04:52 37.44847 126.44582 38 ft 1 kts 36°
2026-05-05 04:52 37.44874 126.44605 38 ft 9 kts 34°
2026-05-05 04:53 37.44902 126.44629 38 ft 2 kts 35°
2026-05-05 04:53 37.44912 126.44638 38 ft 1 kts 36°
2026-05-05 04:53 37.44931 126.44656 37 ft 0 kts 36°